Weather History for Cumberland, WI

Change the Weather History Date:

Tuesday, March 25, 2014

  Actual Average (KRPD) Record (KRPD)
Temperature  
Mean Temperature 11 °F -  
Max Temperature 19 °F 41 °F 75 °F (2007)
Min Temperature 3 °F 24 °F 5 °F (2002)
Degree Days  
Heating Degree Days 54    
Moisture  
Dew Point -1 °F    
Average Humidity 56    
Maximum Humidity 78    
Minimum Humidity 45    
Precipitation  
Precipitation 0.00 in - - ()
Sea Level Pressure  
Sea Level Pressure 30.13 in    
Wind  
Wind Speed 14 mph (WNW)    
Max Wind Speed 23 mph    
Max Gust Speed 29 mph    
Visibility 10 miles    
Events      
Averages and records for this station are not official NWS values.
T = Trace of Precipitation, MM = Missing Value Source: NWS Daily Summary

Daily Weather History Graph

Daily Weather History Graph

Search for Another Location

Airport:

Trip Planner

Search our weather history database for the weather conditions in past years. The results will help you decide how hot, cold, wet, or windy it might be!

Date:

Astronomy

Mar. 25, 2014 Rise Set
Actual Time 7:01 AM CDT 7:27 PM CDT
Civil Twilight 6:31 AM CDT 7:56 PM CDT
Nautical Twilight 5:56 AM CDT 8:31 PM CDT
Astronomical Twilight 5:20 AM CDT 9:08 PM CDT
Moon 3:38 AM CDT 1:44 PM CDT
Length of Visible Light 13h 24m
Length of Day
12h 25m
Waning Crescent, 32% of the Moon is Illuminated
Mar 25
Waning Crescent
Mar 30
New
Apr 7
First Quarter
Apr 15
Full
Apr 22
Last Quarter

Hourly Weather History & Observations

Time (CDT) Temp. Windchill Dew Point Humidity Pressure Visibility Wind Dir Wind Speed Gust Speed Precip Events Conditions
12:15 AM 17.6 °F 5.0 °F 5.0 °F 58% 30.03 in 10.0 mi NW 11.5 mph 24.2 mph N/A   Mostly Cloudy
12:35 AM 17.6 °F 2.2 °F 3.2 °F 53% 30.03 in 10.0 mi NW 17.3 mph 21.9 mph N/A   Scattered Clouds
12:55 AM 15.8 °F -1.1 °F 3.2 °F 58% 30.03 in 7.0 mi NNW 19.6 mph 28.8 mph N/A   Clear
1:15 AM 14.0 °F -3.0 °F -0.4 °F 53% 30.04 in 10.0 mi NW 18.4 mph 25.3 mph N/A   Clear
1:35 AM 14.0 °F -2.5 °F -4.0 °F 45% 30.05 in 10.0 mi NW 17.3 mph 24.2 mph N/A   Clear
1:55 AM 12.2 °F -3.1 °F -4.0 °F 48% 30.06 in 10.0 mi NW 13.8 mph 26.5 mph N/A   Clear
2:15 AM 12.2 °F -4.3 °F -4.0 °F 48% 30.06 in 10.0 mi NW 16.1 mph 21.9 mph N/A   Clear
2:35 AM 12.2 °F -4.8 °F -4.0 °F 48% 30.07 in 10.0 mi NNW 17.3 mph 23.0 mph N/A   Clear
2:55 AM 10.4 °F -6.6 °F -4.0 °F 52% 30.07 in 10.0 mi NW 16.1 mph 21.9 mph N/A   Clear
3:15 AM 10.4 °F -6.6 °F -4.0 °F 52% 30.07 in 10.0 mi NNW 16.1 mph 19.6 mph N/A   Clear
3:35 AM 10.4 °F -6.6 °F -4.0 °F 52% 30.08 in 10.0 mi NW 16.1 mph - N/A   Clear
3:55 AM 8.6 °F -8.9 °F -4.0 °F 57% 30.08 in 10.0 mi NNW 16.1 mph - N/A   Clear
4:15 AM 8.6 °F -8.9 °F -2.2 °F 62% 30.09 in 10.0 mi NNW 16.1 mph - N/A   Clear
4:35 AM 8.6 °F -8.9 °F -4.0 °F 57% 30.10 in 10.0 mi NNW 16.1 mph 21.9 mph N/A   Clear
4:55 AM 8.6 °F -7.7 °F -5.8 °F 52% 30.10 in 10.0 mi NNW 13.8 mph - N/A   Clear
5:15 AM 6.8 °F -10.0 °F -5.8 °F 56% 30.10 in 10.0 mi NNW 13.8 mph - N/A   Clear
5:35 AM 6.8 °F -7.8 °F -5.8 °F 56% 30.11 in 10.0 mi NW 10.4 mph - N/A   Clear
5:55 AM 5.0 °F -12.3 °F -4.0 °F 66% 30.12 in 10.0 mi NW 13.8 mph - N/A   Clear
6:15 AM 5.0 °F -10.0 °F -4.0 °F 66% 30.13 in 10.0 mi NW 10.4 mph - N/A   Clear
6:35 AM 5.0 °F -10.0 °F -4.0 °F 66% 30.13 in 10.0 mi NW 10.4 mph 16.1 mph N/A   Clear
6:55 AM 5.0 °F -9.1 °F -4.0 °F 66% 30.14 in 10.0 mi NW 9.2 mph - N/A   Clear
7:15 AM 5.0 °F -9.1 °F -4.0 °F 66% 30.15 in 10.0 mi NW 9.2 mph - N/A   Clear
7:35 AM 5.0 °F -10.8 °F -4.0 °F 66% 30.16 in 10.0 mi NW 11.5 mph - N/A   Clear
7:55 AM 5.0 °F -14.2 °F -4.0 °F 66% 30.16 in 10.0 mi NW 17.3 mph - N/A   Clear
8:15 AM 5.0 °F -12.3 °F -4.0 °F 66% 30.16 in 10.0 mi NW 13.8 mph 23.0 mph N/A   Clear
8:35 AM 5.0 °F -12.3 °F -4.0 °F 66% 30.16 in 10.0 mi NW 13.8 mph 19.6 mph N/A   Clear
8:55 AM 5.0 °F -14.2 °F -4.0 °F 66% 30.17 in 10.0 mi NW 17.3 mph 25.3 mph N/A   Scattered Clouds
9:15 AM 5.0 °F -13.6 °F -4.0 °F 66% 30.17 in 10.0 mi NW 16.1 mph - N/A   Clear
9:35 AM 6.8 °F -11.3 °F -4.0 °F 61% 30.17 in 10.0 mi NW 16.1 mph 21.9 mph N/A   Clear
9:55 AM 8.6 °F -7.7 °F -5.8 °F 52% 30.18 in 10.0 mi NW 13.8 mph - N/A   Clear
10:15 AM 8.6 °F -11.4 °F -4.0 °F 57% 30.18 in 10.0 mi NNW 21.9 mph 27.6 mph N/A   Clear
10:35 AM 10.4 °F -7.2 °F -4.0 °F 52% 30.19 in 10.0 mi NW 17.3 mph 24.2 mph N/A   Clear
10:55 AM 10.4 °F -8.6 °F -4.0 °F 52% 30.20 in 10.0 mi NW 20.7 mph 24.2 mph N/A   Scattered Clouds
11:15 AM 10.4 °F -6.6 °F -4.0 °F 52% 30.19 in 10.0 mi NW 16.1 mph 21.9 mph N/A   Scattered Clouds
11:35 AM 12.2 °F -3.1 °F -4.0 °F 48% 30.19 in 10.0 mi WNW 13.8 mph - N/A   Scattered Clouds
11:55 AM 12.2 °F -4.3 °F -2.2 °F 53% 30.19 in 10.0 mi NW 16.1 mph 20.7 mph N/A   Scattered Clouds
12:15 PM 12.2 °F -1.8 °F -2.2 °F 53% 30.19 in 10.0 mi NW 11.5 mph 21.9 mph N/A   Scattered Clouds
12:35 PM 12.2 °F -4.3 °F -0.4 °F 57% 30.19 in 10.0 mi WNW 16.1 mph 23.0 mph N/A   Mostly Cloudy
12:55 PM 14.0 °F -0.8 °F -0.4 °F 53% 30.18 in 10.0 mi NW 13.8 mph - N/A   Mostly Cloudy
1:15 PM 14.0 °F -1.4 °F -0.4 °F 53% 30.17 in 10.0 mi WNW 15.0 mph 26.5 mph N/A   Scattered Clouds
1:35 PM 15.8 °F 0.9 °F -0.4 °F 49% 30.16 in 10.0 mi WNW 15.0 mph 19.6 mph N/A   Mostly Cloudy
1:55 PM 15.8 °F 2.7 °F -0.4 °F 49% 30.16 in 10.0 mi NW 11.5 mph 21.9 mph N/A   Scattered Clouds
2:15 PM 17.6 °F 5.0 °F -0.4 °F 45% 30.16 in 10.0 mi WNW 11.5 mph 25.3 mph N/A   Scattered Clouds
2:35 PM 17.6 °F 3.2 °F -0.4 °F 45% 30.15 in 10.0 mi WNW 15.0 mph 23.0 mph N/A   Mostly Cloudy
2:55 PM 17.6 °F 3.7 °F -0.4 °F 45% 30.15 in 10.0 mi WNW 13.8 mph 23.0 mph N/A   Mostly Cloudy
3:15 PM 17.6 °F 4.3 °F 1.4 °F 49% 30.14 in 10.0 mi WNW 12.7 mph 18.4 mph N/A   Mostly Cloudy
3:35 PM 19.4 °F 6.0 °F 1.4 °F 46% 30.14 in 10.0 mi WNW 13.8 mph 18.4 mph N/A   Mostly Cloudy
3:55 PM 17.6 °F 1.7 °F 1.4 °F 49% 30.14 in 10.0 mi WNW 18.4 mph 27.6 mph N/A   Mostly Cloudy
4:15 PM 17.6 °F 2.2 °F 1.4 °F 49% 30.13 in 10.0 mi WNW 17.3 mph 26.5 mph N/A   Mostly Cloudy
4:35 PM 19.4 °F 5.5 °F 1.4 °F 46% 30.13 in 10.0 mi WNW 15.0 mph 23.0 mph N/A   Overcast
4:55 PM 19.4 °F 2.5 °F 1.4 °F 46% 30.13 in 10.0 mi West 23.0 mph - N/A   Overcast
5:15 PM 19.4 °F 5.5 °F 1.4 °F 46% 30.13 in 10.0 mi West 15.0 mph - N/A   Mostly Cloudy
5:35 PM 17.6 °F 3.7 °F 1.4 °F 49% 30.13 in 10.0 mi WNW 13.8 mph 23.0 mph N/A   Mostly Cloudy
5:55 PM 17.6 °F 5.0 °F 3.2 °F 53% 30.13 in 10.0 mi West 11.5 mph - N/A   Overcast
6:15 PM 17.6 °F 3.7 °F 3.2 °F 53% 30.13 in 10.0 mi West 13.8 mph - N/A   Mostly Cloudy
6:35 PM 17.6 °F 2.7 °F 3.2 °F 53% 30.13 in 10.0 mi WNW 16.1 mph 19.6 mph N/A   Overcast
6:55 PM 17.6 °F 4.3 °F 3.2 °F 53% 30.13 in 10.0 mi West 12.7 mph 17.3 mph N/A   Mostly Cloudy
7:15 PM 17.6 °F 3.2 °F 3.2 °F 53% 30.13 in 10.0 mi West 15.0 mph 20.7 mph N/A   Scattered Clouds
7:35 PM 15.8 °F 5.1 °F 3.2 °F 58% 30.13 in 10.0 mi West 8.1 mph - N/A   Mostly Cloudy
7:55 PM 15.8 °F 7.2 °F 3.2 °F 58% 30.13 in 10.0 mi West 5.8 mph - N/A   Overcast
8:15 PM 14.0 °F 2.9 °F 3.2 °F 62% 30.13 in 10.0 mi West 8.1 mph - N/A   Mostly Cloudy
8:35 PM 14.0 °F 5.1 °F 3.2 °F 62% 30.13 in 10.0 mi West 5.8 mph - N/A   Scattered Clouds
8:55 PM 14.0 °F 5.1 °F 1.4 °F 57% 30.13 in 10.0 mi WSW 5.8 mph - N/A   Clear
9:15 PM 12.2 °F 2.9 °F 1.4 °F 62% 30.13 in 10.0 mi WSW 5.8 mph - N/A   Clear
9:35 PM 14.0 °F 6.5 °F 1.4 °F 57% 30.12 in 10.0 mi WSW 4.6 mph - N/A   Clear
9:55 PM 14.0 °F 6.5 °F 1.4 °F 57% 30.12 in 10.0 mi WSW 4.6 mph - N/A   Clear
10:15 PM 12.2 °F 2.9 °F 1.4 °F 62% 30.13 in 10.0 mi WSW 5.8 mph - N/A   Clear
10:35 PM 10.4 °F 2.2 °F 1.4 °F 67% 30.12 in 10.0 mi WSW 4.6 mph - N/A   Clear
10:55 PM 6.8 °F -0.1 °F -0.4 °F 72% 30.12 in 10.0 mi SW 3.5 mph - N/A   Clear
11:15 PM 3.2 °F -6.2 °F -4.0 °F 72% 30.12 in 10.0 mi SW 4.6 mph - N/A   Clear
11:35 PM 3.2 °F -4.2 °F -4.0 °F 72% 30.12 in 10.0 mi SW 3.5 mph - N/A   Clear
11:55 PM 3.2 °F -4.2 °F -2.2 °F 78% 30.12 in 10.0 mi SW 3.5 mph - N/A   Clear